Date String (YYYY-MM-DD hh:mm:ss) UTC,Instrument flags,absolute air pressure of the measurement (hPa),sample flow rate (lpm),inlet stack bypass flow (lpm),air temperature of the measurement (°C),ambient temperature measured by the external sensor (°C),aerosol sample conditioner tube jacket temperature (°C),OPC LED temperature (°C),internal box temperature (°C),relative humidity of the measurement (%),span deviation,mass concentration of particles derived from Lorenz-Mie calculation of OPC scattering (μg/m³),mass concentration of particles derived from Lorenz-Mie calculation of OPC scattering (μg/m³),mass concentration of particles derived from Lorenz-Mie calculation of OPC scattering (μg/m³)
DateTimeUTC,F1_M11,P_M11,Q1_M11,Q2_M11,T1_M11,T2_M11,T3_M11,T4_M11,T5_M11,U1_M11,ZSPAN_M11,X0_M11,X2_M11,X1_M11
2024-05-13 13:00:00,SystemResetWarning,0828.1,5.00,000.00,025.9,025.2,000.0,034.1,027.6,021.2,0000.0,0007.37,0003.18,0002.52
2024-05-13 13:01:00,SystemResetWarning,0828.1,5.01,000.00,025.9,025.2,000.0,034.1,027.6,021.2,0000.0,0007.11,0003.16,0002.51
2024-05-13 13:02:00,SystemResetWarning,0828.1,5.01,000.00,025.9,025.3,000.0,034.1,027.6,021.1,0000.0,0007.13,0003.17,0002.51
2024-05-13 13:03:00,SystemResetWarning,0828.1,5.00,000.00,025.9,025.3,000.0,034.1,027.6,021.1,0000.0,0007.19,0003.18,0002.52
2024-05-13 13:04:00,SystemResetWarning,0828.1,4.99,000.00,025.9,025.3,000.0,034.1,027.6,021.0,0000.0,0007.53,0003.22,0002.52
2024-05-13 13:05:00,SystemResetWarning,0828.1,5.00,000.00,025.9,025.3,000.0,034.1,027.6,020.8,0000.0,0007.55,0003.21,0002.51
2024-05-13 13:06:00,SystemResetWarning,0828.1,5.01,000.00,025.9,025.3,000.0,034.2,027.6,020.7,0000.0,0005.88,0003.24,0002.52
2024-05-13 13:07:00,SystemResetWarning,0828.1,5.01,000.00,025.9,025.3,000.0,034.2,027.6,020.3,0000.0,0005.84,0003.24,0002.53
2024-05-13 13:08:00,SystemResetWarning,0828.1,5.00,000.00,025.9,025.3,000.0,034.2,027.6,019.9,0000.0,0006.83,0003.23,0002.53
2024-05-13 13:09:00,SystemResetWarning,0828.1,4.99,000.00,025.9,025.3,000.0,034.2,027.7,019.9,0000.0,0006.86,0003.22,0002.53
2024-05-13 13:10:00,SystemResetWarning,0828.1,4.99,000.00,026.0,025.3,000.0,034.2,027.7,020.1,0000.0,0006.99,0003.23,0002.53
2024-05-13 13:11:00,SystemResetWarning,0828.1,4.99,000.00,026.0,025.3,000.0,034.2,027.7,020.2,0000.0,0007.07,0003.25,0002.54
2024-05-13 13:12:00,SystemResetWarning,0828.0,5.01,000.00,026.0,025.3,000.0,034.2,027.7,020.2,0000.0,0007.08,0003.25,0002.54
2024-05-13 13:13:00,SystemResetWarning,0827.9,5.01,000.00,026.0,025.3,000.0,034.2,027.7,019.8,0000.0,0007.17,0003.26,0002.54
2024-05-13 13:14:00,SystemResetWarning,0827.8,5.00,000.00,026.0,025.3,000.0,034.2,027.7,019.6,0000.0,0007.28,0003.30,0002.56
2024-05-13 13:15:00,SystemResetWarning,0827.9,4.99,000.00,026.0,025.3,000.0,034.2,027.7,019.7,0000.0,0007.58,0003.31,0002.56
2024-05-13 13:16:00,SystemResetWarning,0827.8,5.00,000.00,026.0,025.3,000.0,034.2,027.7,019.8,0000.0,0007.61,0003.31,0002.56
2024-05-13 13:17:00,SystemResetWarning,0827.8,5.01,000.00,026.0,025.3,000.0,034.2,027.7,020.1,0000.0,0007.70,0003.27,0002.55
2024-05-13 13:18:00,SystemResetWarning,0827.9,5.01,000.00,026.0,025.3,000.0,034.2,027.7,020.3,0000.0,0007.71,0003.28,0002.55
2024-05-13 13:19:00,SystemResetWarning,0828.0,4.98,000.00,026.0,025.3,000.0,034.2,027.7,020.9,0000.0,0007.56,0003.29,0002.54
2024-05-13 13:20:00,SystemResetWarning,0828.1,4.99,000.00,026.0,025.3,000.0,034.2,027.7,021.3,0000.0,0007.65,0003.30,0002.56
2024-05-13 13:21:00,SystemResetWarning,0828.1,5.01,000.00,026.0,025.4,000.0,034.2,027.7,021.5,0000.0,0007.68,0003.31,0002.57
2024-05-13 13:22:00,SystemResetWarning,0828.1,5.01,000.00,026.0,025.3,000.0,034.2,027.7,021.3,0000.0,0008.31,0003.29,0002.57
2024-05-13 13:23:00,SystemResetWarning,0828.1,5.01,000.00,026.0,025.3,000.0,034.2,027.7,021.0,0000.0,0008.27,0003.29,0002.59
2024-05-13 13:24:00,SystemResetWarning,0828.1,4.99,000.00,026.0,025.4,000.0,034.2,027.7,021.0,0000.0,0008.23,0003.26,0002.59
2024-05-13 13:25:00,SystemResetWarning,0828.1,4.99,000.00,026.0,025.4,000.0,034.2,027.7,020.4,0000.0,0008.33,0003.25,0002.58
2024-05-13 13:26:00,SystemResetWarning,0828.1,5.00,000.00,026.0,025.4,000.0,034.2,027.7,020.5,0000.0,0007.96,0003.22,0002.57
2024-05-13 13:27:00,SystemResetWarning,0828.2,5.01,000.00,026.0,025.4,000.0,034.2,027.7,020.7,0000.0,0007.56,0003.18,0002.55
2024-05-13 13:28:00,SystemResetWarning,0828.2,5.00,000.00,026.0,025.4,000.0,034.2,027.7,021.4,0000.0,0007.37,0003.18,0002.54
2024-05-13 13:29:00,SystemResetWarning,0828.2,5.00,000.00,026.0,025.4,000.0,034.3,027.7,021.7,0000.0,0007.45,0003.21,0002.52
2024-05-13 13:30:00,SystemResetWarning,0828.3,5.00,000.00,026.0,025.4,000.0,034.3,027.7,021.3,0000.0,0007.43,0003.22,0002.53
2024-05-13 13:31:00,SystemResetWarning,0828.3,5.00,000.00,026.1,025.4,000.0,034.3,027.7,021.0,0000.0,0007.45,0003.22,0002.52
2024-05-13 13:32:00,SystemResetWarning,0828.3,4.99,000.00,026.1,025.4,000.0,034.3,027.7,020.7,0000.0,0007.44,0003.21,0002.50
2024-05-13 13:33:00,SystemResetWarning,0828.3,5.00,000.00,026.1,025.4,000.0,034.3,027.7,020.6,0000.0,0006.56,0003.22,0002.50
2024-05-13 13:34:00,SystemResetWarning,0828.3,4.99,000.00,026.1,025.4,000.0,034.3,027.7,021.1,0000.0,0006.54,0003.25,0002.48
2024-05-13 13:35:00,SystemResetWarning,0828.3,5.00,000.00,026.1,025.4,000.0,034.3,027.8,020.7,0000.0,0006.78,0003.26,0002.47
2024-05-13 13:36:00,SystemResetWarning,0828.2,5.01,000.00,026.1,025.5,000.0,034.3,027.8,020.2,0000.0,0007.62,0003.27,0002.47
2024-05-13 13:37:00,SystemResetWarning,0828.3,5.00,000.00,026.1,025.5,000.0,034.3,027.8,020.0,0000.0,0007.66,0003.27,0002.47
2024-05-13 13:38:00,SystemResetWarning,0828.2,4.98,000.00,026.1,025.5,000.0,034.3,027.8,020.0,0000.0,0007.78,0003.33,0002.49
2024-05-13 13:39:00,SystemResetWarning,0828.2,4.99,000.00,026.1,025.5,000.0,034.3,027.8,020.1,0000.0,0007.74,0003.31,0002.50
2024-05-13 13:40:00,SystemResetWarning,0828.2,4.99,000.00,026.1,025.5,000.0,034.3,027.8,020.2,0000.0,0007.58,0003.26,0002.49
2024-05-13 13:41:00,SystemResetWarning,0828.3,5.01,000.00,026.1,025.5,000.0,034.3,027.8,020.9,0000.0,0007.31,0003.21,0002.48
2024-05-13 13:42:00,SystemResetWarning,0828.3,5.01,000.00,026.1,025.5,000.0,034.3,027.8,020.9,0000.0,0006.74,0003.21,0002.48
2024-05-13 13:43:00,SystemResetWarning,0828.3,5.01,000.00,026.1,025.5,000.0,034.3,027.8,021.3,0000.0,0006.59,0003.19,0002.49
2024-05-13 13:44:00,SystemResetWarning,0828.3,5.00,000.00,026.2,025.5,000.0,034.4,027.8,021.8,0000.0,0006.69,0003.21,0002.49
2024-05-13 13:45:00,SystemResetWarning,0828.4,4.99,000.00,026.2,025.5,000.0,034.4,027.9,021.6,0000.0,0006.56,0003.21,0002.49
2024-05-13 13:46:00,SystemResetWarning,0828.3,4.99,000.00,026.2,025.5,000.0,034.4,027.9,021.5,0000.0,0006.36,0003.21,0002.49
2024-05-13 13:47:00,SystemResetWarning,0828.4,5.01,000.00,026.2,025.6,000.0,034.4,027.9,020.9,0000.0,0005.03,0003.19,0002.49
2024-05-13 13:48:00,SystemResetWarning,0828.3,5.01,000.00,026.2,025.6,000.0,034.4,027.9,021.0,0000.0,0005.38,0003.20,0002.47
2024-05-13 13:49:00,SystemResetWarning,0828.3,5.00,000.00,026.2,025.6,000.0,034.4,027.9,021.5,0000.0,0005.26,0003.16,0002.47
2024-05-13 13:50:00,SystemResetWarning,0828.3,4.99,000.00,026.2,025.6,000.0,034.4,027.9,021.6,0000.0,0005.21,0003.17,0002.46
2024-05-13 13:51:00,SystemResetWarning,0828.3,5.00,000.00,026.2,025.6,000.0,034.4,027.9,021.3,0000.0,0005.74,0003.21,0002.49
2024-05-13 13:52:00,SystemResetWarning,0828.3,5.00,000.00,026.2,025.6,000.0,034.4,027.9,021.2,0000.0,0005.93,0003.23,0002.50
2024-05-13 13:53:00,SystemResetWarning,0828.3,4.99,000.00,026.2,025.4,000.0,034.5,027.8,021.7,0000.0,0005.87,0003.21,0002.50
2024-05-13 13:54:00,SystemResetWarning,0828.3,5.00,000.00,026.0,023.7,000.0,034.5,027.0,021.2,0000.0,0005.82,0003.20,0002.49
2024-05-13 13:55:00,SystemResetWarning,0828.3,5.01,000.00,025.6,022.4,000.0,034.5,026.3,021.8,0000.0,0007.22,0003.17,0002.48
2024-05-13 13:56:00,SystemResetWarning,0828.3,5.01,000.00,025.4,022.6,000.0,034.4,026.3,022.0,0000.0,0007.35,0003.16,0002.49
2024-05-13 13:57:00,SystemResetWarning,0828.3,4.99,000.00,025.3,023.0,000.0,034.3,026.4,022.2,0000.0,0007.39,0003.18,0002.49
2024-05-13 13:58:00,SystemResetWarning,0828.3,5.00,000.00,025.3,023.3,000.0,034.1,026.6,022.1,0000.0,0007.43,0003.20,0002.50
2024-05-13 13:59:00,SystemResetWarning,0828.3,5.02,000.00,025.3,023.6,000.0,034.0,026.7,022.7,0000.0,0007.78,0003.20,0002.51
